Regional Weather Roundup
Issued by NWS Sterling, VA

Home | Current Version | Previous Version | Graphics & Text | Print | Product List | Glossary On
Versions: 1 2 3 4 5 6 7 8 9 10 11 12 13 14 15 16 17 18 19 20 21 22 23 24 25 26 27 28 29 30 31 32 33 34 35 36 37 38 39 40 41 42 43 44 45 46 47 48 49 50
000
ASUS41 KLWX 191111
RWRLWX

REGIONAL WEATHER ROUNDUP
NATIONAL WEATHER SERVICE BALTIMORE MD/WASHINGTON DC
700 AM EDT THU APR 19 2018

Note: "FAIR" indicates few or no clouds below 12,000 feet
with no significant weather and/or obstructions to visibility.
 TC=TEMPERATURE CELSIUS

 * =Non NWS site. Station does not report precipitation (e.g. rain,
    snow, etc.), thunder, or fog.

DCZ001-MDZ009-015-VAZ040>042-051-053>054-191200-
WASHINGTON METRO

CITY           SKY/WX    TMP DP  RH WIND       PRES   REMARKS
WASHINGTON NAT MOCLDY    52  39  61 N10       29.67R
DULLES         LGT RAIN  48  42  80 W3        29.68R
ANDREWS AFB    FAIR      50  38  64 E6        29.62F
FT BELVOIR     CLOUDY    51  40  65 W7        29.68R
QUANTICO       DRIZZLE   52  43  71 W7        29.71R
COLLEGE PARK*  MOCLDY    50  38  63 NW5       29.66R
LEESBURG*      CLOUDY    50  45  81 CALM      29.70R
MANASSAS*      LGT RAIN  50  41  71 CALM      29.70R
GAITHERSBURG*  CLOUDY    48  40  73 W5        29.69R

$$

MDZ006>007-011-014-191200-
BALTIMORE METRO

CITY           SKY/WX    TMP DP  RH WIND       PRES   REMARKS
BWI AIRPORT    MOCLDY    50  39  66 CALM      29.65S
MD SCIENCE CTR   N/A     52  38  58 MISG      29.66S
MARTIN STATE   MOCLDY    52  43  71 NW6       29.67F
ANNAPOLIS      FAIR      53  43  68 NE3       29.63F
FORT MEADE*    FAIR      46  37  71 CALM      29.68R

$$

MDZ012-015-019>023-191200-
MARYLAND EASTERN SHORE

CITY           SKY/WX    TMP DP  RH WIND       PRES   REMARKS
OCEAN CITY     CLOUDY    48  47  96 N9        29.65R
SALISBURY      CLOUDY    48  45  89 N9G18     29.66R
BAY BRIDGE AP* FAIR      50  41  71 E8        29.63F
CAMBRIDGE*     CLOUDY    50  45  81 N7G14     29.65S
EASTON*        PTCLDY    50  41  71 NE6       29.69F

$$

MDZ017>025-191200-
SOUTHERN MARYLAND

CITY           SKY/WX    TMP DP  RH WIND       PRES   REMARKS
PATUXENT RIVER FAIR      52  43  71 N12       29.66R
ST INIGOES     FAIR      50  43  77 N5        29.67R
LEONARDTOWN*   MOCLDY    48  41  76 N6        29.68R

$$

MDZ003>005-191200-
NORTH CENTRAL MARYLAND

CITY           SKY/WX    TMP DP  RH WIND       PRES   REMARKS
FREDERICK*     CLOUDY    46  46 100 CALM      29.72R
HAGERSTOWN APT CLOUDY    45  43  93 W7        29.68R FOG
WESTMINSTER*   MOCLDY    45  43  93 W5        29.67R

$$

MDZ501>502-191200-
WESTERN MARYLAND

CITY           SKY/WX    TMP DP  RH WIND       PRES   REMARKS
OAKLAND*       CLOUDY    37  37 100 W13G23    29.68S WCI  29
CUMBERLAND*    CLOUDY    46  46 100 S5        29.74R

$$

VAZ025>031-191200-
SHENANDOAH VALLEY

CITY           SKY/WX    TMP DP  RH WIND       PRES   REMARKS
WINCHESTER*    CLOUDY    45  41  87 W8        29.72R
FRONT ROYAL*   CLOUDY    46  41  81 CALM      29.70R
LURAY*         LGT RAIN  48  45  87 E5        29.71R
NEW MARKET*    CLOUDY    48  46  93 CALM      29.70R
STAUNTON*      RAIN      48  46  91 CALM      29.73S
WAYNESBORO*    CLOUDY    49  47  93 W6        29.72R

$$

WVZ021-048>050-054>055-191200-
EASTERN WEST VIRGINIA PANHANDLE

CITY           SKY/WX    TMP DP  RH WIND       PRES   REMARKS
MARTINSBURG    CLOUDY    46  44  93 W7        29.68R
PETERSBURG*    CLOUDY    47  44  88 W5        29.72R

$$

VAZ036>039-050-191200-
CENTRAL FOOTHILLS

CITY           SKY/WX    TMP DP  RH WIND       PRES   REMARKS
CHARLOTTESVILL LGT RAIN  51  45  79 CALM      29.71R
CULPEPER*      RAIN      48  44  83 CALM      29.72R
ORANGE*        LGT RAIN  46  43  87 CALM      29.71R
GORDONSVILLE*  CLOUDY    48  48  98 CALM      29.70R
WARRENTON*     DRIZZLE   49  41  73 CALM      29.69R

$$

VAZ055>057-191200-
NORTH AND CENTRAL PIEDMONT

CITY           SKY/WX    TMP DP  RH WIND       PRES   REMARKS
FREDERICKSBRG* DRIZZLE   49  45  87 W6        29.71R
STAFFORD*      DRIZZLE   49  44  82 CALM      29.74R

$$

NCZ024-NYZ072-PAZ021-071-VAZ022-071-191200-
OTHER REGIONAL OBSERVATIONS

CITY           SKY/WX    TMP DP  RH WIND       PRES   REMARKS
NEW YORK CITY  LGT RAIN  41  37  86 VRB3      29.73F
PHILADELPHIA   CLOUDY    47  36  65 E16       29.63F
PITTSBURGH     LGT SNOW  36  34  92 NW17      29.77R FOG     WCI  26
ROANOKE        CLOUDY    56  47  71 W7        29.78R
RICHMOND       MOCLDY    50  47  89 N10       29.69R
RALEIGH        FAIR      64  51  62 SW12      29.71R

$$

ANZ530>537-191200-
MARINE OBSERVATIONS

STATION/POSITION TIME  TEMP    WIND        PRES
                       AIR SEA DIR/SP/G
                 (UTC) (F)     (DEG/KT/KT) (MB)
THOMAS PT LIGHT  1100   50 50   80/  9/ 10 1004.2F
BALT KEY BRIDGE  1048   51     100/  1/  2 1004.0F
COVE POINT       1048   50      20/ 12/ 15 1005.0R
LEWISETTA        1048   50 55  360/  7/ 11 1005.1R
SOLOMONS ISLAND  1048   51 52  340/  9/ 12 1004.3R
PINEY POINT      1048           10/  6/  6   N/A

$$





USA.gov is the U.S. government's official web portal to all federal, state and local government web resources and services.